Time,TemperatureF,DewpointF,PressureIn,WindDirection,WindDirectionDegrees,WindSpeedMPH,WindSpeedGustMPH,Humidity,HourlyPrecipIn,Conditions,Clouds,dailyrainin,SoftwareType,DateUTC
2013-06-26 00:00:00,54.1,46.4,29.79,WSW,248,2.3,3.0,75,0.00,,,0.06,WUHU216TE923,2013-06-26 07:00:00,
2013-06-26 00:05:00,54.0,46.3,29.79,South,180,2.2,3.0,75,0.00,,,0.00,WUHU216TE923,2013-06-26 07:05:00,
2013-06-26 00:10:00,54.0,46.3,29.79,SSE,158,1.9,2.4,75,0.00,,,0.00,WUHU216TE923,2013-06-26 07:10:00,
2013-06-26 00:15:00,54.0,46.3,29.79,SSE,158,1.9,2.0,75,0.00,,,0.00,WUHU216TE923,2013-06-26 07:15:00,
2013-06-26 00:20:00,54.0,46.3,29.79,SW,225,0.9,2.0,75,0.00,,,0.00,WUHU216TE923,2013-06-26 07:20:00,
2013-06-26 00:25:00,54.0,46.7,29.79,SSE,158,1.6,2.3,76,0.00,,,0.00,WUHU216TE923,2013-06-26 07:25:00,
2013-06-26 00:30:00,53.8,46.1,29.79,South,180,2.0,4.0,75,0.00,,,0.00,WUHU216TE923,2013-06-26 07:30:00,
2013-06-26 00:35:00,53.8,46.5,29.79,South,180,2.1,4.0,76,0.00,,,0.00,WUHU216TE923,2013-06-26 07:35:00,
2013-06-26 00:40:00,53.6,46.3,29.80,SW,225,2.0,2.9,76,0.00,,,0.00,WUHU216TE923,2013-06-26 07:40:00,
2013-06-26 00:45:00,53.6,46.3,29.80,SW,225,1.7,2.4,76,0.00,,,0.00,WUHU216TE923,2013-06-26 07:45:00,
2013-06-26 00:50:00,53.6,46.3,29.80,WSW,248,1.7,2.4,76,0.00,,,0.00,WUHU216TE923,2013-06-26 07:50:00,
2013-06-26 00:55:00,53.6,46.3,29.80,SSE,158,2.1,2.5,76,0.00,,,0.00,WUHU216TE923,2013-06-26 07:55:00,
2013-06-26 01:00:00,53.4,46.1,29.79,SW,225,2.2,3.2,76,0.00,,,0.00,WUHU216TE923,2013-06-26 08:00:00,
2013-06-26 01:05:00,53.4,46.4,29.79,WSW,248,2.3,3.2,77,0.00,,,0.00,WUHU216TE923,2013-06-26 08:05:00,
2013-06-26 01:10:00,53.4,46.4,29.79,South,180,2.3,4.5,77,0.00,,,0.00,WUHU216TE923,2013-06-26 08:10:00,
2013-06-26 01:15:00,53.4,46.4,29.79,South,180,2.3,4.5,77,0.00,,,0.00,WUHU216TE923,2013-06-26 08:15:00,
2013-06-26 01:20:00,53.4,46.4,29.80,SSW,203,2.3,3.6,77,0.00,,,0.00,WUHU216TE923,2013-06-26 08:20:00,
2013-06-26 01:25:00,53.4,46.4,29.80,SW,225,2.2,3.6,77,0.00,,,0.00,WUHU216TE923,2013-06-26 08:25:00,
2013-06-26 01:30:00,53.4,46.4,29.80,South,180,2.2,3.6,77,0.00,,,0.00,WUHU216TE923,2013-06-26 08:30:00,
2013-06-26 01:35:00,53.4,46.4,29.80,SW,225,2.2,2.2,77,0.00,,,0.00,WUHU216TE923,2013-06-26 08:35:00,
2013-06-26 01:40:00,53.4,46.4,29.80,South,180,2.2,3.6,77,0.00,,,0.00,WUHU216TE923,2013-06-26 08:40:00,
2013-06-26 01:45:00,53.2,46.2,29.80,SW,225,2.3,4.0,77,0.00,,,0.00,WUHU216TE923,2013-06-26 08:45:00,
2013-06-26 01:50:00,53.2,46.2,29.80,SW,225,2.2,4.0,77,0.00,,,0.00,WUHU216TE923,2013-06-26 08:50:00,
2013-06-26 01:55:00,53.2,46.2,29.80,SW,225,2.6,3.6,77,0.00,,,0.00,WUHU216TE923,2013-06-26 08:55:00,
2013-06-26 02:00:00,53.2,46.2,29.79,South,180,2.6,3.6,77,0.00,,,0.00,WUHU216TE923,2013-06-26 09:00:00,
2013-06-26 02:05:00,53.2,46.2,29.79,SW,225,2.5,3.9,77,0.00,,,0.00,WUHU216TE923,2013-06-26 09:05:00,
2013-06-26 02:10:00,53.4,46.4,29.79,South,180,2.3,3.9,77,0.00,,,0.00,WUHU216TE923,2013-06-26 09:10:00,
2013-06-26 02:15:00,53.2,46.2,29.79,SE,135,2.5,5.1,77,0.00,,,0.00,WUHU216TE923,2013-06-26 09:15:00,
2013-06-26 02:20:00,53.2,46.2,29.80,SW,225,2.8,5.1,77,0.00,,,0.00,WUHU216TE923,2013-06-26 09:20:00,
2013-06-26 02:25:00,53.4,46.4,29.80,SW,225,2.7,4.0,77,0.00,,,0.00,WUHU216TE923,2013-06-26 09:25:00,
2013-06-26 02:30:00,53.4,46.4,29.80,NW,315,2.4,4.0,77,0.00,,,0.00,WUHU216TE923,2013-06-26 09:30:00,
2013-06-26 02:35:00,53.4,46.4,29.80,South,180,2.7,3.0,77,0.00,,,0.00,WUHU216TE923,2013-06-26 09:35:00,
2013-06-26 02:40:00,53.2,46.2,29.81,WSW,248,2.8,4.9,77,0.00,,,0.00,WUHU216TE923,2013-06-26 09:40:00,
2013-06-26 02:45:00,53.2,46.2,29.81,SW,225,2.8,4.9,77,0.00,,,0.00,WUHU216TE923,2013-06-26 09:45:00,
2013-06-26 02:50:00,53.2,46.2,29.81,WSW,248,3.0,7.2,77,0.00,,,0.00,WUHU216TE923,2013-06-26 09:50:00,
2013-06-26 02:55:00,53.2,46.2,29.81,South,180,2.5,7.2,77,0.00,,,0.00,WUHU216TE923,2013-06-26 09:55:00,
2013-06-26 03:00:00,53.2,46.2,29.81,SW,225,2.1,2.6,77,0.00,,,0.00,WUHU216TE923,2013-06-26 10:00:00,
2013-06-26 03:05:00,53.2,46.2,29.81,West,270,1.0,2.5,77,0.00,,,0.00,WUHU216TE923,2013-06-26 10:05:00,
2013-06-26 03:10:00,53.2,46.2,29.81,WSW,248,0.8,2.0,77,0.00,,,0.00,WUHU216TE923,2013-06-26 10:10:00,
2013-06-26 03:15:00,53.2,46.2,29.81,WSW,248,0.8,2.0,77,0.00,,,0.00,WUHU216TE923,2013-06-26 10:15:00,
2013-06-26 03:20:00,53.2,46.2,29.81,WSW,248,1.6,2.0,77,0.00,,,0.00,WUHU216TE923,2013-06-26 10:20:00,
2013-06-26 03:25:00,53.2,46.2,29.81,SW,225,1.9,2.5,77,0.00,,,0.00,WUHU216TE923,2013-06-26 10:25:00,
2013-06-26 03:30:00,53.2,46.2,29.81,SW,225,2.3,2.6,77,0.00,,,0.00,WUHU216TE923,2013-06-26 10:30:00,
2013-06-26 03:35:00,53.2,46.2,29.81,SW,225,2.8,5.8,77,0.00,,,0.00,WUHU216TE923,2013-06-26 10:35:00,
2013-06-26 03:40:00,53.2,46.2,29.81,SSW,203,2.9,5.8,77,0.00,,,0.00,WUHU216TE923,2013-06-26 10:40:00,
2013-06-26 03:45:00,53.2,46.2,29.81,SW,225,3.3,5.3,77,0.00,,,0.00,WUHU216TE923,2013-06-26 10:45:00,
2013-06-26 03:50:00,53.2,46.2,29.81,SSW,203,2.9,5.3,77,0.00,,,0.00,WUHU216TE923,2013-06-26 10:50:00,
2013-06-26 03:55:00,53.2,46.2,29.81,WSW,248,2.6,4.3,77,0.00,,,0.00,WUHU216TE923,2013-06-26 10:55:00,
2013-06-26 04:00:00,53.2,46.2,29.81,SW,225,2.5,3.3,77,0.00,,,0.00,WUHU216TE923,2013-06-26 11:00:00,
2013-06-26 04:05:00,53.2,46.2,29.81,WSW,248,2.7,3.2,77,0.00,,,0.00,WUHU216TE923,2013-06-26 11:05:00,
2013-06-26 04:10:00,53.4,46.4,29.81,South,180,2.1,3.2,77,0.00,,,0.00,WUHU216TE923,2013-06-26 11:10:00,
2013-06-26 04:15:00,53.4,46.4,29.81,SW,225,1.4,2.6,77,0.00,,,0.00,WUHU216TE923,2013-06-26 11:15:00,
2013-06-26 04:20:00,53.4,46.4,29.81,SW,225,1.8,2.5,77,0.00,,,0.00,WUHU216TE923,2013-06-26 11:20:00,
2013-06-26 04:25:00,53.4,46.4,29.81,SSW,203,2.3,2.5,77,0.00,,,0.00,WUHU216TE923,2013-06-26 11:25:00,
2013-06-26 04:30:00,53.4,46.4,29.81,SW,225,2.3,3.0,77,0.00,,,0.00,WUHU216TE923,2013-06-26 11:30:00,
2013-06-26 04:35:00,53.4,46.4,29.81,SW,225,1.9,3.4,77,0.00,,,0.00,WUHU216TE923,2013-06-26 11:35:00,
2013-06-26 04:40:00,53.4,46.4,29.81,WSW,248,2.0,3.8,77,0.00,,,0.00,WUHU216TE923,2013-06-26 11:40:00,
2013-06-26 04:45:00,53.4,46.4,29.81,West,270,2.4,3.8,77,0.00,,,0.00,WUHU216TE923,2013-06-26 11:45:00,
2013-06-26 04:50:00,53.4,46.4,29.81,West,270,2.4,2.4,77,0.00,,,0.00,WUHU216TE923,2013-06-26 11:50:00,
2013-06-26 04:55:00,53.4,46.4,29.81,WSW,248,2.4,2.9,77,0.00,,,0.00,WUHU216TE923,2013-06-26 11:55:00,
2013-06-26 05:00:00,53.4,46.4,29.82,SSW,203,2.3,3.2,77,0.00,,,0.00,WUHU216TE923,2013-06-26 12:00:00,
2013-06-26 05:05:00,53.4,46.4,29.82,West,270,2.4,3.2,77,0.00,,,0.00,WUHU216TE923,2013-06-26 12:05:00,
2013-06-26 05:10:00,53.4,46.4,29.82,NNW,338,2.3,3.3,77,0.00,,,0.00,WUHU216TE923,2013-06-26 12:10:00,
2013-06-26 05:15:00,53.4,46.4,29.82,WSW,248,2.3,3.3,77,0.00,,,0.00,WUHU216TE923,2013-06-26 12:15:00,
2013-06-26 05:20:00,53.4,46.8,29.82,WSW,248,2.2,3.3,78,0.00,,,0.00,WUHU216TE923,2013-06-26 12:20:00,
2013-06-26 05:25:00,53.2,46.6,29.82,SW,225,2.1,3.1,78,0.00,,,0.00,WUHU216TE923,2013-06-26 12:25:00,
2013-06-26 05:30:00,53.2,46.6,29.82,SW,225,2.2,3.1,78,0.00,,,0.00,WUHU216TE923,2013-06-26 12:30:00,
2013-06-26 05:35:00,53.2,46.6,29.82,SW,225,2.3,2.9,78,0.00,,,0.00,WUHU216TE923,2013-06-26 12:35:00,
2013-06-26 05:40:00,53.2,46.6,29.82,SW,225,2.4,2.9,78,0.00,,,0.00,WUHU216TE923,2013-06-26 12:40:00,
2013-06-26 05:46:00,53.4,46.8,29.82,West,270,2.6,3.8,78,0.00,,,0.00,WUHU216TE923,2013-06-26 12:46:00,
2013-06-26 05:51:00,53.2,46.6,29.82,SW,225,2.2,4.5,78,0.00,,,0.00,WUHU216TE923,2013-06-26 12:51:00,
2013-06-26 05:56:00,53.2,46.6,29.82,SW,225,2.1,4.5,78,0.00,,,0.00,WUHU216TE923,2013-06-26 12:56:00,
2013-06-26 06:01:00,53.2,46.6,29.83,West,270,2.1,2.4,78,0.00,,,0.00,WUHU216TE923,2013-06-26 13:01:00,
2013-06-26 06:06:00,53.2,46.9,29.83,WNW,293,1.8,2.4,79,0.00,,,0.00,WUHU216TE923,2013-06-26 13:06:00,
2013-06-26 06:11:00,53.1,46.8,29.83,SW,225,1.8,3.3,79,0.00,,,0.00,WUHU216TE923,2013-06-26 13:11:00,
2013-06-26 06:16:00,53.1,46.8,29.83,SW,225,1.8,3.3,79,0.00,,,0.00,WUHU216TE923,2013-06-26 13:16:00,
2013-06-26 06:21:00,53.1,47.5,29.82,NNW,338,1.4,3.3,81,0.00,,,0.00,WUHU216TE923,2013-06-26 13:21:00,
2013-06-26 06:26:00,53.2,47.9,29.82,NW,315,1.5,1.5,82,0.00,,,0.00,WUHU216TE923,2013-06-26 13:26:00,
2013-06-26 06:31:00,53.2,47.9,29.82,ENE,68,1.5,2.6,82,0.00,,,0.00,WUHU216TE923,2013-06-26 13:31:00,
2013-06-26 06:36:00,53.4,48.1,29.82,WSW,248,1.7,2.6,82,0.00,,,0.00,WUHU216TE923,2013-06-26 13:36:00,
2013-06-26 06:41:00,53.4,48.1,29.83,South,180,1.7,2.8,82,0.00,,,0.00,WUHU216TE923,2013-06-26 13:41:00,
2013-06-26 06:46:00,53.4,48.1,29.83,WSW,248,1.5,2.8,82,0.00,,,0.00,WUHU216TE923,2013-06-26 13:46:00,
2013-06-26 06:51:00,53.4,47.7,29.83,WSW,248,1.7,2.5,81,0.00,,,0.00,WUHU216TE923,2013-06-26 13:51:00,
2013-06-26 06:56:00,53.4,47.7,29.83,South,180,1.7,2.5,81,0.00,,,0.00,WUHU216TE923,2013-06-26 13:56:00,
2013-06-26 07:01:00,53.6,47.9,29.83,WSW,248,1.5,2.3,81,0.00,,,0.00,WUHU216TE923,2013-06-26 14:01:00,
2013-06-26 07:06:00,53.6,47.9,29.83,SSW,203,1.4,1.6,81,0.00,,,0.00,WUHU216TE923,2013-06-26 14:06:00,
2013-06-26 07:11:00,53.6,47.9,29.83,SSW,203,1.3,1.5,81,0.00,,,0.00,WUHU216TE923,2013-06-26 14:11:00,
2013-06-26 07:16:00,53.8,48.1,29.83,SSW,203,1.2,2.8,81,0.00,,,0.00,WUHU216TE923,2013-06-26 14:16:00,
2013-06-26 07:21:00,53.8,48.1,29.83,SSW,203,1.3,3.1,81,0.00,,,0.00,WUHU216TE923,2013-06-26 14:21:00,
2013-06-26 07:26:00,53.8,48.1,29.83,WSW,248,1.6,3.1,81,0.00,,,0.00,WUHU216TE923,2013-06-26 14:26:00,
2013-06-26 07:31:00,53.8,47.8,29.83,WSW,248,2.0,3.9,80,0.00,,,0.00,WUHU216TE923,2013-06-26 14:31:00,
2013-06-26 07:36:00,54.0,48.0,29.83,NE,45,1.8,3.9,80,0.00,,,0.00,WUHU216TE923,2013-06-26 14:36:00,
2013-06-26 07:41:00,54.0,48.0,29.83,West,270,1.9,3.4,80,0.00,,,0.00,WUHU216TE923,2013-06-26 14:41:00,
2013-06-26 07:46:00,54.1,48.1,29.83,SSW,203,1.8,3.2,80,0.00,,,0.00,WUHU216TE923,2013-06-26 14:46:00,
2013-06-26 07:51:00,54.1,48.1,29.83,South,180,1.8,3.8,80,0.00,,,0.00,WUHU216TE923,2013-06-26 14:51:00,
2013-06-26 07:56:00,54.0,48.0,29.83,South,180,1.6,3.8,80,0.00,,,0.00,WUHU216TE923,2013-06-26 14:56:00,
2013-06-26 08:01:00,54.1,48.1,29.83,South,180,1.3,2.0,80,0.00,,,0.00,WUHU216TE923,2013-06-26 15:01:00,
2013-06-26 08:06:00,54.1,48.4,29.83,WSW,248,0.7,2.3,81,0.00,,,0.00,WUHU216TE923,2013-06-26 15:06:00,
2013-06-26 08:11:00,54.1,48.4,29.83,NE,45,0.6,2.3,81,0.00,,,0.00,WUHU216TE923,2013-06-26 15:11:00,
2013-06-26 08:16:00,54.3,48.6,29.83,ESE,113,1.2,1.2,81,0.00,,,0.00,WUHU216TE923,2013-06-26 15:16:00,
2013-06-26 08:21:00,54.5,48.8,29.84,WSW,248,1.2,1.2,81,0.00,,,0.00,WUHU216TE923,2013-06-26 15:21:00,
2013-06-26 08:26:00,54.7,49.0,29.84,South,180,0.7,1.8,81,0.00,,,0.00,WUHU216TE923,2013-06-26 15:26:00,
2013-06-26 08:31:00,54.7,49.0,29.84,West,270,0.7,1.8,81,0.00,,,0.00,WUHU216TE923,2013-06-26 15:31:00,
2013-06-26 08:36:00,54.9,49.2,29.84,SW,225,1.2,3.4,81,0.00,,,0.00,WUHU216TE923,2013-06-26 15:36:00,
2013-06-26 08:41:00,54.9,49.2,29.84,West,270,1.3,3.4,81,0.00,,,0.00,WUHU216TE923,2013-06-26 15:41:00,
2013-06-26 08:46:00,55.2,49.5,29.84,SW,225,0.8,2.0,81,0.00,,,0.00,WUHU216TE923,2013-06-26 15:46:00,
2013-06-26 08:51:00,55.2,49.5,29.84,NE,45,0.2,0.8,81,0.00,,,0.00,WUHU216TE923,2013-06-26 15:51:00,
2013-06-26 08:56:00,55.4,49.4,29.84,SE,135,0.3,0.3,80,0.00,,,0.00,WUHU216TE923,2013-06-26 15:56:00,
2013-06-26 09:01:00,55.6,49.6,29.85,SW,225,0.2,0.3,80,0.00,,,0.00,WUHU216TE923,2013-06-26 16:01:00,
2013-06-26 09:06:00,55.9,49.9,29.85,SW,225,1.0,3.3,80,0.00,,,0.00,WUHU216TE923,2013-06-26 16:06:00,
2013-06-26 09:11:00,55.9,49.9,29.85,SW,225,1.0,3.3,80,0.00,,,0.00,WUHU216TE923,2013-06-26 16:11:00,
2013-06-26 09:16:00,56.1,49.7,29.85,South,180,1.3,2.6,79,0.00,,,0.00,WUHU216TE923,2013-06-26 16:16:00,
2013-06-26 09:21:00,56.1,49.7,29.85,South,180,1.3,2.6,79,0.00,,,0.00,WUHU216TE923,2013-06-26 16:21:00,
2013-06-26 09:26:00,56.3,50.3,29.85,SSW,203,0.5,0.9,80,0.00,,,0.00,WUHU216TE923,2013-06-26 16:26:00,
2013-06-26 09:31:00,56.3,50.3,29.85,SSW,203,0.5,0.9,80,0.00,,,0.00,WUHU216TE923,2013-06-26 16:31:00,
2013-06-26 09:36:00,56.8,50.7,29.85,South,180,0.3,2.4,80,0.00,,,0.00,WUHU216TE923,2013-06-26 16:36:00,
2013-06-26 09:41:00,56.8,50.7,29.85,South,180,0.3,2.4,80,0.00,,,0.00,WUHU216TE923,2013-06-26 16:41:00,
2013-06-26 09:46:00,57.2,50.8,29.85,West,270,0.3,1.1,79,0.00,,,0.00,WUHU216TE923,2013-06-26 16:46:00,
2013-06-26 09:51:00,57.2,50.8,29.85,West,270,0.3,1.1,79,0.00,,,0.00,WUHU216TE923,2013-06-26 16:51:00,
2013-06-26 09:56:00,57.6,51.2,29.85,South,180,0.9,3.3,79,0.00,,,0.00,WUHU216TE923,2013-06-26 16:56:00,
2013-06-26 10:01:00,57.6,51.2,29.85,South,180,0.9,3.3,79,0.00,,,0.00,WUHU216TE923,2013-06-26 17:01:00,
2013-06-26 10:06:00,57.7,51.3,29.85,NNE,23,0.9,1.4,79,0.00,,,0.00,WUHU216TE923,2013-06-26 17:06:00,
2013-06-26 10:11:00,57.7,51.3,29.85,NNE,23,0.9,1.4,79,0.00,,,0.00,WUHU216TE923,2013-06-26 17:11:00,
2013-06-26 10:16:00,58.3,51.5,29.85,South,180,0.8,3.7,78,0.00,,,0.00,WUHU216TE923,2013-06-26 17:16:00,
2013-06-26 10:21:00,58.3,51.5,29.85,South,180,0.8,3.7,78,0.00,,,0.00,WUHU216TE923,2013-06-26 17:21:00,
2013-06-26 10:26:00,58.3,51.5,29.85,South,180,2.0,4.9,78,0.00,,,0.00,WUHU216TE923,2013-06-26 17:26:00,
2013-06-26 10:31:00,58.3,51.5,29.85,South,180,2.0,4.9,78,0.00,,,0.00,WUHU216TE923,2013-06-26 17:31:00,
2013-06-26 10:36:00,58.3,51.9,29.85,WSW,248,2.0,2.1,79,0.00,,,0.00,WUHU216TE923,2013-06-26 17:36:00,
2013-06-26 10:41:00,58.3,51.9,29.85,WSW,248,2.0,2.1,79,0.00,,,0.00,WUHU216TE923,2013-06-26 17:41:00,
2013-06-26 10:46:00,58.3,52.5,29.85,ESE,113,1.0,1.2,81,0.00,,,0.00,WUHU216TE923,2013-06-26 17:46:00,
2013-06-26 10:51:00,58.3,52.5,29.85,ESE,113,1.0,1.2,81,0.00,,,0.00,WUHU216TE923,2013-06-26 17:51:00,
2013-06-26 10:56:00,58.6,53.2,29.86,West,270,1.0,2.4,82,0.00,,,0.00,WUHU216TE923,2013-06-26 17:56:00,
2013-06-26 11:01:00,58.6,53.2,29.86,West,270,1.0,2.4,82,0.00,,,0.00,WUHU216TE923,2013-06-26 18:01:00,
2013-06-26 11:06:00,58.8,53.7,29.86,West,270,1.7,7.7,83,0.00,,,0.00,WUHU216TE923,2013-06-26 18:06:00,
2013-06-26 11:11:00,58.8,53.7,29.86,West,270,1.7,7.7,83,0.00,,,0.00,WUHU216TE923,2013-06-26 18:11:00,
2013-06-26 11:16:00,59.0,53.5,29.86,SW,225,1.5,2.1,82,0.00,,,0.00,WUHU216TE923,2013-06-26 18:16:00,
2013-06-26 11:21:00,59.0,53.5,29.86,SW,225,1.5,2.1,82,0.00,,,0.00,WUHU216TE923,2013-06-26 18:21:00,
2013-06-26 11:26:00,59.4,53.9,29.86,WSW,248,1.8,2.6,82,0.00,,,0.00,WUHU216TE923,2013-06-26 18:26:00,
2013-06-26 11:31:00,59.4,53.9,29.86,WSW,248,1.8,2.6,82,0.00,,,0.00,WUHU216TE923,2013-06-26 18:31:00,
2013-06-26 11:36:00,59.5,54.0,29.87,SSW,203,1.9,2.4,82,0.00,,,0.00,WUHU216TE923,2013-06-26 18:36:00,
2013-06-26 11:41:00,59.5,54.0,29.87,SSW,203,1.9,2.4,82,0.00,,,0.00,WUHU216TE923,2013-06-26 18:41:00,
2013-06-26 11:46:00,60.1,54.6,29.87,NNE,23,1.0,1.8,82,0.00,,,0.00,WUHU216TE923,2013-06-26 18:46:00,
2013-06-26 11:51:00,60.1,54.6,29.87,NNE,23,1.0,1.8,82,0.00,,,0.00,WUHU216TE923,2013-06-26 18:51:00,
2013-06-26 11:56:00,60.1,54.6,29.88,North,0,1.2,1.5,82,0.00,,,0.00,WUHU216TE923,2013-06-26 18:56:00,
2013-06-26 12:01:00,60.1,54.6,29.88,North,0,1.2,1.5,82,0.00,,,0.00,WUHU216TE923,2013-06-26 19:01:00,
2013-06-26 12:06:00,60.1,54.6,29.88,NNW,338,1.1,2.8,82,0.00,,,0.00,WUHU216TE923,2013-06-26 19:06:00,
2013-06-26 12:11:00,60.1,54.6,29.88,NNW,338,1.1,2.8,82,0.00,,,0.00,WUHU216TE923,2013-06-26 19:11:00,
2013-06-26 12:16:00,60.3,54.8,29.88,NW,315,1.4,2.8,82,0.00,,,0.00,WUHU216TE923,2013-06-26 19:16:00,
2013-06-26 12:21:00,60.3,54.8,29.88,NW,315,1.4,2.8,82,0.00,,,0.00,WUHU216TE923,2013-06-26 19:21:00,
2013-06-26 12:26:00,60.6,54.8,29.88,NE,45,2.0,4.4,81,0.00,,,0.00,WUHU216TE923,2013-06-26 19:26:00,
2013-06-26 12:31:00,60.6,54.8,29.88,NE,45,2.0,4.4,81,0.00,,,0.00,WUHU216TE923,2013-06-26 19:31:00,
2013-06-26 12:36:00,60.8,54.6,29.87,NNW,338,2.6,5.2,80,0.00,,,0.00,WUHU216TE923,2013-06-26 19:36:00,
2013-06-26 12:41:00,60.8,54.6,29.87,NNW,338,2.6,5.2,80,0.00,,,0.00,WUHU216TE923,2013-06-26 19:41:00,
2013-06-26 12:46:00,60.6,55.1,29.87,NE,45,2.0,2.4,82,0.00,,,0.00,WUHU216TE923,2013-06-26 19:46:00,
2013-06-26 12:51:00,60.6,55.1,29.87,NE,45,2.0,2.4,82,0.00,,,0.00,WUHU216TE923,2013-06-26 19:51:00,
2013-06-26 12:56:00,60.4,54.9,29.88,NNW,338,1.8,5.6,82,0.00,,,0.00,WUHU216TE923,2013-06-26 19:56:00,
2013-06-26 13:01:00,60.4,54.9,29.88,NNW,338,1.8,5.6,82,0.00,,,0.00,WUHU216TE923,2013-06-26 20:01:00,
2013-06-26 13:06:00,61.0,54.8,29.88,NNE,23,1.8,3.6,80,0.00,,,0.00,WUHU216TE923,2013-06-26 20:06:00,
2013-06-26 13:11:00,61.0,54.8,29.88,NNE,23,1.8,3.6,80,0.00,,,0.00,WUHU216TE923,2013-06-26 20:11:00,
2013-06-26 13:16:00,61.3,55.1,29.88,NNW,338,2.1,5.1,80,0.00,,,0.00,WUHU216TE923,2013-06-26 20:16:00,
2013-06-26 13:21:00,61.3,55.1,29.88,NNW,338,2.1,5.1,80,0.00,,,0.00,WUHU216TE923,2013-06-26 20:21:00,
2013-06-26 13:26:00,61.5,54.3,29.88,NNW,338,2.2,3.2,77,0.00,,,0.00,WUHU216TE923,2013-06-26 20:26:00,
2013-06-26 13:31:00,61.5,54.3,29.88,NNW,338,2.2,3.2,77,0.00,,,0.00,WUHU216TE923,2013-06-26 20:31:00,
2013-06-26 13:36:00,62.1,54.5,29.89,North,0,1.9,2.1,76,0.00,,,0.00,WUHU216TE923,2013-06-26 20:36:00,
2013-06-26 13:41:00,62.1,54.5,29.89,North,0,1.9,2.1,76,0.00,,,0.00,WUHU216TE923,2013-06-26 20:41:00,
2013-06-26 13:46:00,62.6,55.0,29.89,NNE,23,2.1,3.6,76,0.00,,,0.00,WUHU216TE923,2013-06-26 20:46:00,
2013-06-26 13:51:00,62.6,55.0,29.89,NNE,23,2.1,3.6,76,0.00,,,0.00,WUHU216TE923,2013-06-26 20:51:00,
2013-06-26 13:56:00,62.8,54.9,29.89,WNW,293,1.7,2.4,75,0.00,,,0.00,WUHU216TE923,2013-06-26 20:56:00,
2013-06-26 14:01:00,62.8,54.9,29.89,WNW,293,1.7,2.4,75,0.00,,,0.00,WUHU216TE923,2013-06-26 21:01:00,
2013-06-26 14:06:00,62.8,54.5,29.89,NNE,23,1.3,2.8,74,0.00,,,0.00,WUHU216TE923,2013-06-26 21:06:00,
2013-06-26 14:11:00,62.8,54.5,29.89,NNE,23,1.3,2.8,74,0.00,,,0.00,WUHU216TE923,2013-06-26 21:11:00,
2013-06-26 14:16:00,62.2,54.3,29.90,NE,45,1.8,5.3,75,0.00,,,0.00,WUHU216TE923,2013-06-26 21:16:00,
2013-06-26 14:21:00,62.2,54.3,29.90,NE,45,1.8,5.3,75,0.00,,,0.00,WUHU216TE923,2013-06-26 21:21:00,
2013-06-26 14:26:00,61.9,54.4,29.90,ENE,68,2.1,2.3,76,0.00,,,0.00,WUHU216TE923,2013-06-26 21:26:00,
2013-06-26 14:31:00,61.9,54.4,29.90,ENE,68,2.1,2.3,76,0.00,,,0.00,WUHU216TE923,2013-06-26 21:31:00,
2013-06-26 14:36:00,61.5,54.0,29.90,North,0,3.0,6.8,76,0.00,,,0.00,WUHU216TE923,2013-06-26 21:36:00,
2013-06-26 14:41:00,61.5,54.0,29.90,North,0,3.0,6.8,76,0.00,,,0.00,WUHU216TE923,2013-06-26 21:41:00,
2013-06-26 14:46:00,62.1,54.5,29.90,NW,315,2.7,2.9,76,0.00,,,0.00,WUHU216TE923,2013-06-26 21:46:00,
2013-06-26 14:51:00,62.1,54.5,29.90,NW,315,2.7,2.9,76,0.00,,,0.00,WUHU216TE923,2013-06-26 21:51:00,
2013-06-26 14:56:00,62.1,55.2,29.90,ENE,68,2.1,3.6,78,0.00,,,0.00,WUHU216TE923,2013-06-26 21:56:00,
2013-06-26 15:01:00,62.1,55.2,29.90,ENE,68,2.1,3.6,78,0.00,,,0.00,WUHU216TE923,2013-06-26 22:01:00,
2013-06-26 15:06:00,62.6,54.7,29.90,NNE,23,2.2,3.5,75,0.00,,,0.00,WUHU216TE923,2013-06-26 22:06:00,
2013-06-26 15:11:00,62.6,54.7,29.90,NNE,23,2.2,3.5,75,0.00,,,0.00,WUHU216TE923,2013-06-26 22:11:00,
2013-06-26 15:16:00,63.0,54.3,29.90,WSW,248,1.5,2.4,73,0.00,,,0.00,WUHU216TE923,2013-06-26 22:16:00,
2013-06-26 15:21:00,63.0,54.3,29.90,WSW,248,1.5,2.4,73,0.00,,,0.00,WUHU216TE923,2013-06-26 22:21:00,
2013-06-26 15:26:00,62.8,54.1,29.90,North,0,1.7,2.8,73,0.00,,,0.00,WUHU216TE923,2013-06-26 22:26:00,
2013-06-26 15:31:00,62.8,54.1,29.90,North,0,1.7,2.8,73,0.00,,,0.00,WUHU216TE923,2013-06-26 22:31:00,
2013-06-26 15:36:00,62.4,53.4,29.90,ENE,68,1.2,1.9,72,0.00,,,0.00,WUHU216TE923,2013-06-26 22:36:00,
2013-06-26 15:41:00,62.4,53.4,29.90,ENE,68,1.2,1.9,72,0.00,,,0.00,WUHU216TE923,2013-06-26 22:41:00,
2013-06-26 15:46:00,62.8,54.5,29.90,ESE,113,1.0,2.5,74,0.00,,,0.00,WUHU216TE923,2013-06-26 22:46:00,
2013-06-26 15:51:00,62.8,54.5,29.90,ESE,113,1.0,2.5,74,0.00,,,0.00,WUHU216TE923,2013-06-26 22:51:00,
2013-06-26 15:56:00,62.6,53.6,29.90,SSE,158,1.4,3.3,72,0.00,,,0.00,WUHU216TE923,2013-06-26 22:56:00,
2013-06-26 16:01:00,62.6,53.6,29.90,SSE,158,1.4,3.3,72,0.00,,,0.00,WUHU216TE923,2013-06-26 23:01:00,
2013-06-26 16:06:00,62.6,54.3,29.90,ESE,113,1.2,2.4,74,0.00,,,0.00,WUHU216TE923,2013-06-26 23:06:00,
2013-06-26 16:11:00,62.6,54.3,29.90,ESE,113,1.2,2.4,74,0.00,,,0.00,WUHU216TE923,2013-06-26 23:11:00,
2013-06-26 16:16:00,63.1,54.8,29.91,SE,135,0.6,1.3,74,0.00,,,0.00,WUHU216TE923,2013-06-26 23:16:00,
2013-06-26 16:21:00,63.1,54.8,29.91,SE,135,0.6,1.3,74,0.00,,,0.00,WUHU216TE923,2013-06-26 23:21:00,
2013-06-26 16:26:00,63.5,54.8,29.91,ENE,68,0.6,1.2,73,0.00,,,0.00,WUHU216TE923,2013-06-26 23:26:00,
2013-06-26 16:31:00,63.5,54.8,29.91,ENE,68,0.6,1.2,73,0.00,,,0.00,WUHU216TE923,2013-06-26 23:31:00,
2013-06-26 16:36:00,63.5,54.8,29.90,SE,135,1.0,2.5,73,0.00,,,0.00,WUHU216TE923,2013-06-26 23:36:00,
2013-06-26 16:41:00,63.5,54.8,29.90,SE,135,1.0,2.5,73,0.00,,,0.00,WUHU216TE923,2013-06-26 23:41:00,
2013-06-26 16:46:00,63.3,54.6,29.90,SE,135,0.3,1.1,73,0.00,,,0.00,WUHU216TE923,2013-06-26 23:46:00,
2013-06-26 16:51:00,63.3,54.6,29.90,SE,135,0.3,1.1,73,0.00,,,0.00,WUHU216TE923,2013-06-26 23:51:00,
2013-06-26 16:56:00,63.3,54.6,29.91,ENE,68,0.2,1.8,73,0.00,,,0.00,WUHU216TE923,2013-06-26 23:56:00,
2013-06-26 17:01:00,63.3,54.6,29.91,ENE,68,0.2,1.8,73,0.00,,,0.00,WUHU216TE923,2013-06-27 00:01:00,
2013-06-26 17:06:00,63.1,54.1,29.91,SE,135,0.5,1.4,72,0.00,,,0.00,WUHU216TE923,2013-06-27 00:06:00,
2013-06-26 17:11:00,63.1,54.1,29.91,SE,135,0.5,1.4,72,0.00,,,0.00,WUHU216TE923,2013-06-27 00:11:00,
2013-06-26 17:16:00,63.0,54.0,29.91,South,180,0.5,1.5,72,0.00,,,0.00,WUHU216TE923,2013-06-27 00:16:00,
2013-06-26 17:21:00,63.0,54.0,29.91,South,180,0.5,1.5,72,0.00,,,0.00,WUHU216TE923,2013-06-27 00:21:00,
2013-06-26 17:26:00,62.8,54.1,29.91,West,270,0.4,1.4,73,0.00,,,0.00,WUHU216TE923,2013-06-27 00:26:00,
2013-06-26 17:31:00,62.8,54.1,29.91,West,270,0.4,1.4,73,0.00,,,0.00,WUHU216TE923,2013-06-27 00:31:00,
2013-06-26 17:36:00,62.6,54.3,29.91,SE,135,0.1,1.2,74,0.00,,,0.00,WUHU216TE923,2013-06-27 00:36:00,
2013-06-26 17:41:00,62.6,54.3,29.91,SE,135,0.1,1.2,74,0.00,,,0.00,WUHU216TE923,2013-06-27 00:41:00,
2013-06-26 17:46:00,62.4,54.8,29.91,South,180,0.5,3.1,76,0.00,,,0.00,WUHU216TE923,2013-06-27 00:46:00,
2013-06-26 17:51:00,62.4,54.8,29.91,South,180,0.5,3.1,76,0.00,,,0.00,WUHU216TE923,2013-06-27 00:51:00,
2013-06-26 17:56:00,62.2,54.6,29.92,ENE,68,1.3,1.7,76,0.00,,,0.00,WUHU216TE923,2013-06-27 00:56:00,
2013-06-26 18:01:00,62.2,54.6,29.92,ENE,68,1.3,1.7,76,0.00,,,0.00,WUHU216TE923,2013-06-27 01:01:00,
2013-06-26 18:06:00,62.4,54.5,29.92,SSE,158,0.4,1.7,75,0.00,,,0.00,WUHU216TE923,2013-06-27 01:06:00,
2013-06-26 18:11:00,62.4,54.5,29.92,SSE,158,0.4,1.7,75,0.00,,,0.00,WUHU216TE923,2013-06-27 01:11:00,
2013-06-26 18:16:00,62.6,54.3,29.91,East,90,0.6,2.9,74,0.00,,,0.00,WUHU216TE923,2013-06-27 01:16:00,
2013-06-26 18:21:00,62.6,54.3,29.91,East,90,0.6,2.9,74,0.00,,,0.00,WUHU216TE923,2013-06-27 01:21:00,
2013-06-26 18:26:00,62.4,54.5,29.91,ESE,113,0.3,0.5,75,0.00,,,0.00,WUHU216TE923,2013-06-27 01:26:00,
2013-06-26 18:31:00,62.4,54.5,29.91,ESE,113,0.3,0.5,75,0.00,,,0.00,WUHU216TE923,2013-06-27 01:31:00,
2013-06-26 18:36:00,62.2,54.3,29.92,East,90,0.6,0.6,75,0.00,,,0.00,WUHU216TE923,2013-06-27 01:36:00,
2013-06-26 18:41:00,62.2,54.3,29.92,East,90,0.6,0.6,75,0.00,,,0.00,WUHU216TE923,2013-06-27 01:41:00,
2013-06-26 18:46:00,62.1,54.5,29.92,SSW,203,0.1,1.0,76,0.00,,,0.00,WUHU216TE923,2013-06-27 01:46:00,
2013-06-26 18:51:00,62.1,54.5,29.92,SSW,203,0.1,1.0,76,0.00,,,0.00,WUHU216TE923,2013-06-27 01:51:00,
2013-06-26 18:56:00,62.1,54.5,29.91,SSE,158,0.2,0.2,76,0.00,,,0.00,WUHU216TE923,2013-06-27 01:56:00,
2013-06-26 19:01:00,62.1,54.5,29.91,SSE,158,0.2,0.2,76,0.00,,,0.00,WUHU216TE923,2013-06-27 02:01:00,
2013-06-26 19:06:00,61.9,54.4,29.91,South,180,0.3,0.3,76,0.00,,,0.00,WUHU216TE923,2013-06-27 02:06:00,
2013-06-26 19:11:00,61.9,54.4,29.91,South,180,0.3,0.3,76,0.00,,,0.00,WUHU216TE923,2013-06-27 02:11:00,
2013-06-26 19:16:00,61.9,54.4,29.91,ESE,113,0.2,1.1,76,0.00,,,0.00,WUHU216TE923,2013-06-27 02:16:00,
2013-06-26 19:21:00,61.9,54.4,29.91,ESE,113,0.2,1.1,76,0.00,,,0.00,WUHU216TE923,2013-06-27 02:21:00,
2013-06-26 19:27:00,61.7,54.2,29.91,SE,135,0.2,0.2,76,0.00,,,0.00,WUHU216TE923,2013-06-27 02:27:00,
2013-06-26 19:32:00,61.7,54.2,29.91,SE,135,0.2,0.2,76,0.00,,,0.00,WUHU216TE923,2013-06-27 02:32:00,
2013-06-26 19:37:00,61.7,54.2,29.91,SE,135,0.1,0.1,76,0.00,,,0.00,WUHU216TE923,2013-06-27 02:37:00,
2013-06-26 19:42:00,61.7,54.2,29.91,SE,135,0.1,0.1,76,0.00,,,0.00,WUHU216TE923,2013-06-27 02:42:00,
2013-06-26 19:47:00,61.5,54.0,29.91,South,180,0.7,1.2,76,0.00,,,0.00,WUHU216TE923,2013-06-27 02:47:00,
2013-06-26 19:52:00,61.5,54.0,29.91,South,180,0.7,1.2,76,0.00,,,0.00,WUHU216TE923,2013-06-27 02:52:00,
2013-06-26 19:57:00,61.3,52.7,29.90,SSE,158,0.5,1.0,73,0.00,,,0.00,WUHU216TE923,2013-06-27 02:57:00,
2013-06-26 20:02:00,61.3,52.7,29.90,SSE,158,0.5,1.0,73,0.00,,,0.00,WUHU216TE923,2013-06-27 03:02:00,
2013-06-26 20:07:00,61.2,52.2,29.90,NNE,23,0.3,0.3,72,0.00,,,0.00,WUHU216TE923,2013-06-27 03:07:00,
2013-06-26 20:12:00,61.2,52.2,29.90,NNE,23,0.3,0.3,72,0.00,,,0.00,WUHU216TE923,2013-06-27 03:12:00,
2013-06-26 20:17:00,61.2,52.2,29.91,SE,135,0.3,1.7,72,0.00,,,0.00,WUHU216TE923,2013-06-27 03:17:00,
2013-06-26 20:22:00,61.2,52.2,29.91,SE,135,0.3,1.7,72,0.00,,,0.00,WUHU216TE923,2013-06-27 03:22:00,
2013-06-26 20:27:00,60.8,51.8,29.91,ENE,68,0.3,1.9,72,0.00,,,0.00,WUHU216TE923,2013-06-27 03:27:00,
2013-06-26 20:32:00,60.8,51.8,29.91,ENE,68,0.3,1.9,72,0.00,,,0.00,WUHU216TE923,2013-06-27 03:32:00,
2013-06-26 20:37:00,60.6,52.0,29.91,SE,135,0.8,1.5,73,0.00,,,0.00,WUHU216TE923,2013-06-27 03:37:00,
2013-06-26 20:42:00,60.6,52.0,29.91,SE,135,0.8,1.5,73,0.00,,,0.00,WUHU216TE923,2013-06-27 03:42:00,
2013-06-26 20:47:00,60.3,51.4,29.91,ESE,113,0.5,1.0,72,0.00,,,0.00,WUHU216TE923,2013-06-27 03:47:00,
2013-06-26 20:52:00,60.3,51.4,29.91,ESE,113,0.5,1.0,72,0.00,,,0.00,WUHU216TE923,2013-06-27 03:52:00,
2013-06-26 20:57:00,60.1,51.2,29.91,SE,135,0.1,0.3,72,0.00,,,0.00,WUHU216TE923,2013-06-27 03:57:00,
2013-06-26 21:02:00,60.1,51.2,29.91,SE,135,0.1,0.3,72,0.00,,,0.00,WUHU216TE923,2013-06-27 04:02:00,
2013-06-26 21:07:00,59.7,50.8,29.91,NE,45,0.1,0.1,72,0.00,,,0.00,WUHU216TE923,2013-06-27 04:07:00,
2013-06-26 21:12:00,59.7,50.8,29.91,NE,45,0.1,0.1,72,0.00,,,0.00,WUHU216TE923,2013-06-27 04:12:00,
2013-06-26 21:17:00,59.4,50.9,29.92,ESE,113,0.0,0.1,73,0.00,,,0.00,WUHU216TE923,2013-06-27 04:17:00,
2013-06-26 21:22:00,59.4,50.9,29.92,ESE,113,0.0,0.1,73,0.00,,,0.00,WUHU216TE923,2013-06-27 04:22:00,
2013-06-26 21:27:00,58.8,50.6,29.92,NNW,338,0.0,0.0,74,0.00,,,0.00,WUHU216TE923,2013-06-27 04:27:00,
2013-06-26 21:32:00,58.8,50.6,29.92,NNW,338,0.0,0.0,74,0.00,,,0.00,WUHU216TE923,2013-06-27 04:32:00,
2013-06-26 21:37:00,58.5,50.7,29.93,NW,315,0.1,0.2,75,0.00,,,0.00,WUHU216TE923,2013-06-27 04:37:00,
2013-06-26 21:42:00,58.5,50.7,29.93,NW,315,0.1,0.2,75,0.00,,,0.00,WUHU216TE923,2013-06-27 04:42:00,
2013-06-26 21:47:00,58.1,50.7,29.93,NW,315,0.0,0.0,76,0.00,,,0.00,WUHU216TE923,2013-06-27 04:47:00,
2013-06-26 21:52:00,58.1,50.7,29.93,NW,315,0.0,0.0,76,0.00,,,0.00,WUHU216TE923,2013-06-27 04:52:00,
2013-06-26 21:57:00,57.7,50.6,29.93,WSW,248,0.0,0.0,77,0.00,,,0.00,WUHU216TE923,2013-06-27 04:57:00,
2013-06-26 22:02:00,57.7,50.6,29.93,WSW,248,0.0,0.0,77,0.00,,,0.00,WUHU216TE923,2013-06-27 05:02:00,
2013-06-26 22:07:00,57.6,50.9,29.93,WSW,248,0.0,0.0,78,0.00,,,0.00,WUHU216TE923,2013-06-27 05:07:00,
2013-06-26 22:12:00,57.6,50.9,29.93,WSW,248,0.0,0.0,78,0.00,,,0.00,WUHU216TE923,2013-06-27 05:12:00,
2013-06-26 22:17:00,57.2,50.5,29.94,WSW,248,0.2,1.0,78,0.00,,,0.00,WUHU216TE923,2013-06-27 05:17:00,
2013-06-26 22:22:00,57.2,50.5,29.94,WSW,248,0.2,1.0,78,0.00,,,0.00,WUHU216TE923,2013-06-27 05:22:00,
2013-06-26 22:27:00,56.8,50.4,29.94,WSW,248,0.1,0.2,79,0.00,,,0.00,WUHU216TE923,2013-06-27 05:27:00,
2013-06-26 22:32:00,56.8,50.4,29.94,WSW,248,0.1,0.2,79,0.00,,,0.00,WUHU216TE923,2013-06-27 05:32:00,
2013-06-26 22:37:00,56.7,50.3,29.95,WSW,248,0.1,0.1,79,0.00,,,0.00,WUHU216TE923,2013-06-27 05:37:00,
2013-06-26 22:42:00,56.7,50.3,29.95,WSW,248,0.1,0.1,79,0.00,,,0.00,WUHU216TE923,2013-06-27 05:42:00,
2013-06-26 22:47:00,56.3,49.9,29.95,SW,225,0.1,0.1,79,0.00,,,0.00,WUHU216TE923,2013-06-27 05:47:00,
2013-06-26 22:52:00,56.3,49.9,29.95,SW,225,0.1,0.1,79,0.00,,,0.00,WUHU216TE923,2013-06-27 05:52:00,
2013-06-26 22:57:00,56.1,49.7,29.94,West,270,0.2,1.3,79,0.00,,,0.00,WUHU216TE923,2013-06-27 05:57:00,
2013-06-26 23:02:00,56.1,49.7,29.94,West,270,0.2,1.3,79,0.00,,,0.00,WUHU216TE923,2013-06-27 06:02:00,
2013-06-26 23:07:00,55.9,49.9,29.94,West,270,0.6,1.3,80,0.00,,,0.00,WUHU216TE923,2013-06-27 06:07:00,
2013-06-26 23:12:00,55.9,49.9,29.94,West,270,0.6,1.3,80,0.00,,,0.00,WUHU216TE923,2013-06-27 06:12:00,
2013-06-26 23:17:00,55.8,49.8,29.93,WNW,293,0.3,0.4,80,0.00,,,0.00,WUHU216TE923,2013-06-27 06:17:00,
2013-06-26 23:22:00,55.8,49.8,29.93,WNW,293,0.3,0.4,80,0.00,,,0.00,WUHU216TE923,2013-06-27 06:22:00,
2013-06-26 23:27:00,55.8,49.8,29.93,SSW,203,0.1,0.1,80,0.00,,,0.00,WUHU216TE923,2013-06-27 06:27:00,
2013-06-26 23:32:00,55.8,49.8,29.93,SSW,203,0.1,0.1,80,0.00,,,0.00,WUHU216TE923,2013-06-27 06:32:00,
2013-06-26 23:37:00,55.6,49.6,29.94,West,270,0.1,0.1,80,0.00,,,0.00,WUHU216TE923,2013-06-27 06:37:00,
2013-06-26 23:42:00,55.6,49.6,29.94,West,270,0.1,0.1,80,0.00,,,0.00,WUHU216TE923,2013-06-27 06:42:00,
2013-06-26 23:47:00,55.6,49.6,29.94,West,270,0.4,1.3,80,0.00,,,0.00,WUHU216TE923,2013-06-27 06:47:00,
2013-06-26 23:52:00,55.6,49.6,29.94,West,270,0.4,1.3,80,0.00,,,0.00,WUHU216TE923,2013-06-27 06:52:00,
2013-06-26 23:57:00,55.4,49.7,29.93,West,270,0.8,1.3,81,0.00,,,0.00,WUHU216TE923,2013-06-27 06:57:00,